timestamp,gas_concentrations,,corrected_fluxes_and_quality_flags,,,,,,,,,,storage_terms,,,turbulence,,,footprint,,
ISOdate,CO2_1_1_1,H2O_1_1_1,Tau_1_1_1,QcTau_1_1_1,H_1_1_1,QcH_1_1_1,LE_1_1_1, QcLE_1_1_1,Fc_1_1_1, QcFc_1_1_1,E_1_1_1, QcE_1_1_1,Sa_1_1_1,Sw_1_1_1,Sc_1_1_1,ustar_1_1_1,MO_length_1_1_1,ZL_1_1_1,Fetchmax_1_1_1,Fetch70_1_1_1,Fetch90_1_1_1
yyyymmddHHMM,[µmol+1mol_a-1],[mmol+1mol_a-1],[kg+1m-1s-2],[#],[W+1m-2],[#],[W+1m-2],[#],[µmol+1s-1m-2],[#],[mmol+1s-1m-2],[#],[W+1m-2],[W+1m-2],[µmol+1s-1m-2],[m+1s-1],[m],[#],[m],[m],[m]
201802070030,410.67521054166042,0.75219426405573941,5.41535060748721819E-002,0,-24.559414302080345,0,0.77761864726457997,0,-2.83387536313870481E-002,0,1.69996071083387580E-002,0,-9999.,-9999.,-9999.,0.20427092780638664,29.294091362649880,0.73735005918429386,106.38454953727150,194.50488616596616,291.40376290742785
201802070100,410.61731087785847,0.73250557374883551,7.14417701230249391E-002,0,-19.037427796277399,0,1.4211451357502074,1,-2.18419836175576254E-002,0,3.10612277888300987E-002,1,-5.7637469201618474,-0.78564892860246249,-5.04972726281950751E-002,0.23453317751098526,57.192705777370868,0.37767053868863043,102.87131945576213,188.08158108970204,281.78048142375036
201802070130,410.53832610224873,0.71333776875607491,0.17191854074431953,0,-45.161448546488764,0,2.0146236652219143,0,-0.28896466822951394,0,4.40181564826795726E-002,0,-8.9241663811360752,-0.76614275313506108,-6.89792746306926580E-002,0.36357690724356700,89.814716518309055,0.24049510856716630,107.09284672091670,195.79987931746996,293.34389862702909
201802070200,410.78616560114239,0.72203964700420442,0.16085820284978411,0,-48.115593813663068,0,2.3109767917190194,0,5.22944967042451303E-002,0,5.04687034439029250E-002,0,-13.292262197915727,0.34874436805113745,0.21691584961915514,0.35130512785699480,76.056687621450180,0.28399869459879262,87.465011349807881,159.91393628206404,239.58021668499325
201802070230,410.87439262729981,0.72618875556541851,0.15048465895740748,0,-34.540740599317708,0,1.2125869233641151,0,0.16615152465867267,0,2.64712355848878353E-002,0,-10.414004512280050,0.16663504560814199,7.73525294683172354E-002,0.33949492009125848,95.626844781011400,0.22587799534183844,104.34049067826032,190.76769465255742,285.80476901488493
201802070300,410.85908367310060,0.73420900765471242,0.14481507056572485,0,-29.793043251996529,0,1.1175596173332873,0,0.28666501067766670,0,2.43891434022482437E-002,0,-8.5549511483636351,0.32268773864910399,-1.34420595552812317E-002,0.33279056015516201,104.43969343815370,0.20681791844583425,104.70709960948021,191.43797270274897,286.80896767472427
201802070330,410.86000473774732,0.76021624923856834,0.37796965909947794,0,-52.382029498112310,0,0.93736695424647998,0,-2.63578749998027995E-002,0,2.04559712535809270E-002,0,-0.97122997752518780,1.0462509518601628,8.08615669812734949E-004,0.53768615003119402,250.48309764396467,8.62333634611231331E-002,113.19910913750381,206.96407450750257,310.06989740442003
201802070400,411.22968409530046,0.79677843991316977,0.35428271978226333,0,-41.612093428159184,0,0.77322563327199378,1,0.19368170642315308,0,1.68722917341433062E-002,1,-2.6926756217575525,1.4712750823872227,0.32460462581590510,0.52052265529705921,286.02437618981122,7.55180390138001090E-002,106.41249341210236,194.55597648139874,291.48030550982031
201802070430,411.49382392902106,0.82484059769679430,0.27605103260826847,0,-36.973366684581201,0,2.0312464570523323,1,-0.26007140503700499,0,4.43131948105094445E-002,1,-6.1568569862878251,1.1303254274915495,0.23210621884600527,0.45930371482762961,221.13332494894928,9.76786289673280406E-002,100.80905053545929,184.31109577645097,276.13160735211886
201802070500,411.59937774631084,0.83869242048649062,0.35633832948496175,0,-21.065775952158582,0,1.2726657878564704,0,-0.27614898931660181,0,2.77583325272985522E-002,0,-5.7880593355699279,0.55867800576706927,9.28554920890762997E-002,0.52155160938009637,568.36381646710799,3.80038267289135659E-002,111.81250493863949,204.42891979725150,306.27177368279126
201802070530,411.85798008280574,0.84797248361688615,0.22614916910974048,0,-18.171741090500326,0,0.37929888594111361,0,-0.20586506817388239,0,8.27114014090800549E-003,0,-6.0329917621081890,0.37473579769070764,0.22771440694815201,0.41529057463879471,332.65053147438590,6.49330091380395102E-002,108.06511165938140,197.57748971298122,296.00708292252972
201802070600,412.12236710709715,0.85133989524063503,0.11742887740073732,0,-10.362356859506331,0,0.31885309874946521,1,-0.24212152116334729,1,6.95180336749870106E-003,1,-4.8829504239869577,0.13610234142181021,0.23297877869553676,0.29914601759699877,218.02920112142428,9.90692984650738684E-002,94.960646899503914,173.61834867725315,260.11192372388859
201802070630,412.19061710971960,0.86062699394264663,0.14370822924538842,0,-11.877470321091398,0,-0.12034510161255216,2,-8.46465566389058566E-002,0,-2.62373289077021425E-003,2,-0.99188830252719307,0.37533847928590552,6.01363275736424494E-002,0.33094692593236286,257.51232759642858,8.38794794859349935E-002,90.114994753888965,164.75895111358250,246.83893177990390
201802070700,412.31894298012224,0.86603182967457626,0.18994776143722300,0,-11.631057796626452,0,1.1262786526733066,0,3.37381047792018052E-004,0,2.45551951188192792E-002,0,0.40183830742139254,0.21840748545485789,0.11305682247554362,0.38050546888681441,399.66214801944380,5.40456485735275327E-002,112.72025001290412,206.08856730344974,308.75822807444820
201802070730,412.44933586844098,0.86796143081924004,0.17833956941460904,0,-11.956012459416387,0,0.74115126047103719,0,9.62770614457355567E-002,0,1.61570348387493692E-002,0,-2.7108518302652707,7.79988716669570425E-002,0.11490250250696732,0.36865600791804798,353.54488372372379,6.10954959169462478E-002,111.02591620252389,202.99078471802181,304.11718527158234
201802070800,412.82297190321412,0.87172840919516326,8.42529316995904026E-002,0,-7.6563828257968813,0,0.46755228295628698,0,-9.30085495098054715E-002,0,1.01924515860270792E-002,0,-0.40184792686607212,0.15224300874927696,0.32918607891264123,0.25341464947387426,179.29179200059079,0.12047400362828002,114.11448323610253,208.63767030333608,312.57724887566172
201802070830,412.69181774706300,0.86854140090454124,3.69891281151216236E-002,0,-10.617181554612635,0,0.18373589719148953,0,0.10060132779988429,0,4.00499946953327812E-003,0,-2.5399305792751075,-0.12884550920342133,-0.11557837896114950,0.16789009475139852,37.592946483011211,0.57457587182641690,261.87436416701922,2592.0000000000000,-9999.
201802070900,412.61124425657414,0.87473012295210451,5.91324914450911746E-002,0,-15.487858520866792,0,-0.48477548289556927,0,-3.69023535481460829E-002,0,-1.05684220533644995E-002,0,3.8707810492258377,0.24995421296438158,-7.09448969663970253E-002,0.21236571424463632,52.146621312453163,0.41421667322560923,120.19129144663339,219.74801381076065,329.22256801944440
201802070930,412.75603383700025,0.88164631052816711,6.55840339077986972E-002,0,-14.122414843764728,0,-0.54325557593126939,0,5.47316869332672429E-002,0,-1.18443444864836187E-002,0,2.3653453940771718,0.27912757964429358,0.12740314049725435,0.22372474661460340,66.850765579648197,0.32310774323541669,104.94873923420815,191.87976700375719,287.47085604309672
201802071000,412.54474817043609,0.92970120703304526,0.18597961670345597,0,-30.545312092753687,0,-2.4863309553498034,1,0.86596952782434200,0,-5.42212735168005611E-002,1,6.5756657928052960,1.9365860416659590,-0.18568634323775138,0.37697975816123652,147.84928938317915,0.14609471638392221,113.33069247363430,207.20465081230174,310.43032454775164
201802071030,412.86794534234610,0.98058528947320800,9.36320945085623302E-002,1,-12.983633911851932,1,-0.27194764335338811,2,0.45877119945813105,1,-5.92945323957735741E-003,2,-5.1547354457245280,2.0523124690114734,0.28422248806985878,0.26740001514569134,124.12404543080581,0.17401946516512096,110.77753622467647,202.53666690178579,303.43683403176021
201802071100,413.02892534072572,0.99521398685018103,9.55051079814078496E-002,0,-4.0308015754644089,1,-0.52888870451083003,1,4.39275102395965955E-002,1,-1.15291422754823219E-002,1,-6.1260693062024654,0.59082169076548918,0.14172791586506719,0.26990893485162010,411.23394010656801,5.25248475220759584E-002,113.93214367277510,208.30429542735254,312.07779256258220
201802071130,413.48058091010188,0.98456444952970823,0.10994843564224441,0,-7.8051659482066418,0,0.27660963918135689,0,-0.10979987508284444,0,6.02818848949055255E-003,0,-7.1844497007143104,-0.43067252325605637,0.39805520586914378,0.28944855501773425,261.90303839839294,8.24732700013324493E-002,111.81192665680359,204.42786251362193,306.27018967925187
201802071200,413.57085694597413,0.97718062945679829,0.10449007445278076,1,-8.1044041600487748,0,-0.50391619900888718,1,0.17221176114176368,0,-1.09800352384982099E-002,1,-4.7076181208073384,-0.29887982703780885,7.96220569074366918E-002,0.28206635365487354,233.42557204906822,9.25348487331091596E-002,110.30610741515369,201.67474468347100,302.14551748593249
201802071230,413.55492663195270,0.96231039383958317,0.10926903751721995,0,-8.7320387653333142,0,-1.1216075155586858,0,0.17980962361102010,0,-2.44334634250474234E-002,0,-6.4430762955682077,-0.60266051871142201,-1.40644693012732143E-002,0.28829828055048812,231.32945568926320,9.33733230627340760E-002,109.35460688789586,199.93509825411519,299.53921012967311
201802071300,413.54841455945746,0.93535520780403647,0.11515996789381168,1,-18.797354766543428,0,-2.0758391828947285,0,0.45729596679672024,0,-4.52052238923068214E-002,0,-9.5094996695029490,-1.0946895584495011,-5.75920832106243969E-003,0.29571256102340432,115.98715608803339,0.18622751629159492,114.37503731598375,209.11404626082057,313.29094686703843
201802071330,413.45126665614811,0.92168966683539244,0.12484448702982916,0,-17.929608210587450,0,-2.0614071687568525,0,0.20407088779745197,0,-4.48803242743931047E-002,0,-6.5572617583082744,-0.55585222192033101,-8.60316304404547677E-002,0.30768901176494429,137.01378227342045,0.15764837406572510,113.38909522894583,207.31142967561468,310.59029874265087
201802071400,413.68025200514688,0.91551335569281211,0.10302267400020299,0,-15.194403789099605,0,-1.9038771132796257,0,0.11431947055558311,0,-4.14464276723387551E-002,0,-2.8122806441643955,-0.25143116075174249,0.20292979704598552,0.27940649821867902,121.09170043624056,0.17837721265936993,108.04141194944050,197.53415908457444,295.94216574530213
201802071430,413.97709227286748,0.94272408892030923,0.17529281582171982,0,-5.0451722165396822,1,-1.5590124080119074,0,0.32215965187273155,0,-3.39494948282123982E-002,0,8.6491111577410749,1.1059199619499140,0.26271811044236304,0.36470343263677640,811.03292379197683,2.66327042544825497E-002,112.40388316831857,205.51014781151741,307.89165027370206
201802071500,414.19165930350863,1.0182956679738537,0.16815916386205465,0,23.687093577220590,1,-0.67660388263766258,2,0.66737751559512348,2,-1.47477426293537803E-002,2,25.860450020949806,3.0552097883646847,0.18907608243266749,0.35799014056906603,-163.33684454555490,-0.13224205512293785,102.26906657496940,186.98047074490825,280.13081747867386
201802071530,414.42813950687406,1.0971148148901304,0.14644461186821209,1,53.759149372321225,1,1.2376384264421778,2,0.49694026073332065,1,2.70075188436940498E-002,2,31.549730405288525,3.1675723652806753,0.20738651249492895,0.33488670959845812,-58.917728353582667,-0.36661291267667401,101.82240338045786,186.16382796942179,278.90733778919775
201802071600,414.23310407259197,1.1989057545469901,0.20646274526178884,1,85.399082849324230,0,4.4018363757045282,1,0.37178384650452134,0,9.61871527515981012E-002,1,37.117670605456013,4.0610908886626795,-0.17003185067079973,0.39881813956459683,-62.635959368379794,-0.34484983095675587,90.244002023921681,164.99481754796076,247.19230267909427
201802071630,413.58088378204837,1.2508551314315872,0.56470409894305795,0,117.38485123389356,0,9.0430502806437847,0,1.7569129123234397,0,0.19778720558325494,0,24.942187883920209,2.0622359375540684,-0.56628565809783415,0.66093164094028556,-207.36613617879155,-0.10416358426708801,121.06160219154370,221.33921942383222,331.60648398345177
201802071700,412.86510040372644,1.2395929631148062,0.42073059251523537,1,162.17821192032096,0,10.154554122987902,0,9.84680396064678831E-002,0,0.22221749174552194,0,14.553220985915162,-0.44582527718168108,-0.62007135099108612,0.57113370996846280,-96.848980767212183,-0.22302764395547042,105.82351076651923,193.47912835889258,289.86699079488642
201802071730,412.92358297847966,1.2148601367289737,0.25418060744007021,0,97.608295460332840,0,6.9127643863981776,0,0.18151101783681867,0,0.15132726251623321,0,9.1835040271777029,-0.97723337303710778,5.05843817959250736E-002,0.44426282164215464,-75.729643485841422,-0.28522516422566263,95.284108486569480,174.20973962119101,260.99793512344706
201802071800,412.54250663879810,1.2336497172825887,0.46135770345721616,1,207.95017511657835,1,10.300717164612784,1,-1.1587384698768872,1,0.22556509816739073,1,8.6072301914073357,0.74097314445605378,-0.32908024118726342,0.59901716299081720,-87.117185079514854,-0.24794189550873272,114.06495082743062,208.54710926273233,312.44157193445506
201802071830,412.56974727948250,1.2225560350104185,0.33657480764390141,1,131.89357395116963,0,5.2746006791000601,1,-0.89128024906312220,0,0.11554909289079522,1,10.654271177714529,-0.43636477193681733,2.34729801154136657E-002,0.51218838282014267,-85.831990667666815,-0.25165442199322996,96.341115055384208,176.14228474393894,263.89323987315203
201802071900,412.44166831815454,1.2228551165143162,0.46379104156676382,0,177.08121528527820,0,9.3696533228135355,0,0.12429806084215222,0,0.20536315005751626,0,13.676401952184291,1.17321793926953213E-002,-0.11011993116263839,0.60190993607181897,-103.74627958871629,-0.20820023701697418,103.11949114420550,188.53531808647696,282.46026212662537
201802071930,411.91122308647851,1.2244679304495856,0.67031872723639374,0,222.51440029514725,0,12.278342520709373,0,0.79460782928586049,0,0.26920707442555908,0,9.0804300853576017,6.31410286999912473E-002,-0.45531783243007656,0.72421606729292121,-143.78762344861946,-0.15022155232796142,117.86403979829353,215.49305555875139,322.84786520302509
201802072000,412.25153496947723,1.2374766178010932,0.36297448641506447,1,194.39904412275905,0,7.9725384696645349,0,0.91004157576540479,0,0.17489472016692459,0,14.302581956967865,0.50778369657738587,0.29140866831036150,0.53356947562365109,-65.809818953201130,-0.32821849905650485,101.92751459587863,186.35600479471373,279.19525369268763
201802072030,412.16470470942835,1.2290761401928298,0.25987611531026289,1,196.16982295858912,0,9.8531707549799314,0,0.74990903300350098,0,0.21621976742906271,0,8.5236271710651650,-0.32736328319752500,-7.42534227658236679E-002,0.45177834281322327,-39.586686910821463,-0.54563798300825728,97.047160567871728,177.43316112243281,265.82720791661012
201802072100,412.06327540955596,1.2405646287592296,0.36187786763734547,0,106.12150092099237,0,5.3057127545107212,0,1.76729207413783840E-002,0,0.11646161242807213,0,7.3131029846948730,0.44714326603203453,-8.66535362709176388E-002,0.53337841494835780,-120.43620413534381,-0.17934806360823485,103.96268780647706,190.07695050889177,284.76990841761085
201802072130,411.96416736508644,1.2285732651861503,0.70044612793235839,0,147.04086388482264,0,8.0979288339720128,0,0.24993643617897643,0,0.17781195922784990,0,9.0272841528195347,-0.46601688202440550,-8.45724666627236527E-002,0.74249271298653974,-234.51186188332125,-9.21062151250448963E-002,119.59504290846100,218.65788131926371,327.58935089903338
201802072200,412.15882237872728,1.2151146010792864,0.40428219353974332,1,58.600984277262036,0,2.0728483440073848,0,-0.19927297236854491,0,4.55136619727034078E-002,0,-0.77872704730942033,-0.52320944461019980,0.16615501939567162,0.56400393885809663,-257.94130197241770,-8.37399820611502560E-002,111.83964159725483,204.47853426399368,306.34610519491065
201802072230,412.28473925324653,1.2197272354588380,0.31833523600145014,0,11.966405964368770,0,1.4519081742099520,0,-0.50244569596247890,0,3.18789518993177895E-002,0,-0.57181330710008016,0.17938228112137811,0.10751754270976432,0.50039020938949963,-882.30832560348074,-2.44812378770494395E-002,110.71221581980669,202.41724036880922,303.25791132299764
201802072300,412.35260081935218,1.1995033197872329,0.23660293948192412,0,-11.331721884975298,0,3.3032490418167941,0,-0.38347175629858299,1,7.25114701560509445E-002,0,-6.0804486795659471,-0.78745148568455248,5.80026494589294533E-002,0.43118195229895584,596.15296925173334,3.62323113598032251E-002,109.76879157361506,200.69235995704017,300.67372615180398
201802072330,412.13817716266760,1.1711630845810983,0.10267155313320560,0,-17.329958091252919,0,0.83230978427812119,0,3.51507174012958279E-002,0,1.82602954486760297E-002,0,-14.870841379071742,-1.1069922318607011,-0.18375392356412409,0.28366337111087775,111.01627533759806,0.19456606641066704,109.54460256465708,200.28247094724784,300.05963772357825
201802080000,411.82025429909623,1.1523145788919156,1.67449572714745906E-002,0,-3.8434162514885468,1,6.27569514546872931E-002,0,-4.14912038314949605E-002,1,1.37629305432842002E-003,0,-10.673652386329929,-0.73788739094482658,-0.27295056972105619,0.11445097775050096,32.883264992404605,0.65686907930186311,413.98032142580524,4345.0000000000000,-9999.
